Regional Weather Roundup
Issued by NWS

Home | Current Version | Previous Version | Graphics & Text | Print | Product List | Glossary On
Versions: 1 2 3 4 5 6 7 8 9 10 11 12 13 14 15 16 17 18 19 20 21 22 23 24 25 26 27 28 29 30 31 32 33 34 35 36 37 38 39 40 41 42 43 44 45 46 47 48 49 50
000
ASUS44 KMEG 041200
RWRTN
TENNESSEE HOURLY STATE WEATHER ROUNDUP
NATIONAL WEATHER SERVICE MEMPHIS TN
700 AM CDT TUE AUG 04 2015

TNZ002-004-019-021-049-052-054-088>092-041300-
WEST TENNESSEE

CITY           SKY/WX    TMP DP  RH WIND       PRES   REMARKS
MEMPHIS INTL   PTCLDY    78  71  79 CALM      29.99R
NWS MEMPHIS      N/A     74 N/A N/A MISG        N/A
JACKSON        CLEAR     72  68  87 S3        30.00R
DYERSBURG        N/A    N/A N/A N/A MISG        N/A
PARIS          SUNNY     70  66  88 CALM      30.00R
LEXINGTON      SUNNY     72  70  94 CALM      30.00R
$$

TNZ008-025-027-028-033-062-065-066-041300-
NORTH MIDDLE TENNESSEE

CITY           SKY/WX    TMP DP  RH WIND       PRES   REMARKS
NASHVILLE      PTSUNNY   74  69  85 CALM      30.01R
CLARKSVILLE    MOSUNNY   71  70  96 CALM      29.99R FOG
CROSSVILLE     SUNNY     69  66  90 CALM      30.08R
$$

TNZ061-075-076-078-094-096-097-041300-
SOUTH MIDDLE TENNESSEE

CITY           SKY/WX    TMP DP  RH WIND       PRES   REMARKS
FAYETTEVILLE   SUNNY     72  70  94 CALM      30.03S
TULLAHOMA      SUNNY     68  64  88 CALM      30.05R
SHELBYVILLE    SUNNY     72  72 100 SE3       30.03S
$$

TNZ017-018-042-046-047-041300-
NORTHEAST TENNESSEE

CITY           SKY/WX    TMP DP  RH WIND       PRES   REMARKS
TRI CITIES     PTSUNNY   67  62  84 CALM      30.05R
$$

TNZ012-013-036-069-073-074-041300-
CENTRAL EAST TENNESSEE

CITY           SKY/WX    TMP DP  RH WIND       PRES   REMARKS
KNOXVILLE      MOSUNNY   71  64  78 CALM      30.02R
OAK RIDGE      SUNNY     71  67  87 CALM      30.04R
GATLINBURG     SUNNY     66  61  82 CALM      30.02S
$$

TNZ083-085-099-041300-
SOUTHEAST TENNESSEE

CITY           SKY/WX    TMP DP  RH WIND       PRES   REMARKS
CHATTANOOGA    PTSUNNY   71  65  81 CALM      30.03R
$$

SKY/WX REPORTED AS FAIR MEANS FEW OR NO CLOUDS BELOW
12 THOUSAND FEET.




USA.gov is the U.S. government's official web portal to all federal, state and local government web resources and services.